Regional Weather Roundup
Issued by NWS

Home | Current Version | Previous Version | Graphics & Text | Print | Product List | Glossary On
Versions: 1 2 3 4 5 6 7 8 9 10 11 12 13 14 15 16 17 18 19 20 21 22 23 24 25 26 27 28 29 30 31 32 33 34 35 36 37 38 39 40 41 42 43 44 45 46 47 48 49 50
000
ASUS43 KMPX 240410
RWRMN
WEATHER ROUNDUP FOR MINNESOTA
NATIONAL WEATHER SERVICE TWIN CITIES/CHANHASSEN MN
1000 PM CST THU FEB 23 2017


NOTE: "FAIR" INDICATES FEW OR NO CLOUDS BELOW 12,000 FEET WITH NO
SIGNIFICANT WEATHER AND/OR OBSTRUCTIONS TO VISIBILITY. N/A MEANS
CURRENT SKY AND/OR WEATHER CONDITIONS ARE NOT AVAILABLE.

MNZ060>063-068>070-240500-
   Twin Cities Metro

CITY           SKY/WX    TMP DP  RH WIND       PRES   REMARKS
TWIN CITIES    CLOUDY    30  22  72 N17       29.92R WCI  18
ST PAUL        CLOUDY    30  24  78 N10       29.95R WCI  21
CRYSTAL        CLOUDY    29  20  69 NE17G28   29.93R WCI  17
BLAINE         CLOUDY    30  25  80 N8G18     29.93R WCI  23
LAKEVILLE      CLOUDY    28  25  86 N12       29.90R WCI  18
EDEN PRAIRIE   CLOUDY    30  22  72 NE14G22   29.91R WCI  19
SOUTH ST PAUL  CLOUDY    31  23  72 N8G18     29.92R WCI  24
LAKE ELMO      CLOUDY    32  27  80 N10       29.94R WCI  24
$$
MNZ001>005-007-008-013>017-022>024-027-028-240500-
   Northwest Minnesota

CITY           SKY/WX    TMP DP  RH WIND       PRES   REMARKS
BEMIDJI        CLEAR     17   9  71 N14       30.01F WCI   3
HALLOCK        CLEAR     18  12  79 N6        30.14S WCI   9
ROSEAU         CLEAR     12   7  79 N8        30.11S WCI   1
WARROAD        CLEAR     12   7  79 NW7       30.10S WCI   2
THIEF RVR FALL CLEAR     17  10  74 N13       30.10S WCI   4
CROOKSTON      CLEAR     19  14  79 NE15      30.12S WCI   5
FOSSTON        CLEAR     16  10  79 N16G22    30.05S WCI   0
DETROIT LAKES  CLOUDY    21  14  73 N10G18    30.04R WCI  10
MOORHEAD       CLOUDY    21  12  68 N22       30.08R WCI   5
PARK RAPIDS    CLOUDY    21  12  68 N10       30.00R WCI  10
MAHNOMEN       FAIR      19  11  73 N20G25    30.04R WCI   2
$$
MNZ006-009>011-018-025>026-240500-
   North Central Minnesota

CITY           SKY/WX    TMP DP  RH WIND       PRES   REMARKS
BAUDETTE       CLEAR     14   5  67 NW12      30.06F WCI   0
FLAG ISLAND    CLEAR     12   5  73 N13       30.09S WCI  -3
INTL FALLS     CLEAR     15   6  67 NW7       30.03F WCI   5
WASKISH        CLEAR     16   9  73 N6        30.05F WCI   7
BIG FORK       CLOUDY    18   9  68 N6        29.99F WCI   9
LONGVILLE      CLOUDY    19  12  73 N7        30.01R WCI  10
GRAND RAPIDS   CLOUDY    18  11  74 N13       30.00F WCI   5
CRANE LAKE     CLEAR     18   9  68 N3        30.03F
ORR            CLEAR     18   9  68 CALM      29.97F
COOK           CLOUDY    18  10  73 NW3       29.98F
WALKER         FAIR      18  10  70 N10       30.00R WCI   6
$$
MNZ012-019>021-037-240500-
   Northeast Minnesota

CITY           SKY/WX    TMP DP  RH WIND       PRES   REMARKS
DULUTH         CLEAR     21  15  78 N8        29.94S WCI  11
ELY            CLEAR     19   9  63 N3        29.97F
HIBBING        PTCLDY    18  12  77 N9        29.96F WCI   7
EVELETH        CLOUDY    20   8  57 N6        29.96F WCI  13
DULUTH HARBOR  CLEAR     28  19  69 N16       29.99S WCI  17
TWO HARBORS    PTCLDY    27  18  69 N3        29.94F
SILVER BAY     PTCLDY    25  14  63 N7        29.94F WCI  17
GRAND MARAIS     N/A     27  12  53 VRB5      29.99F WCI  22
G MARAIS ARPRT CLOUDY    19   7  58 N8        29.92F WCI   9
$$
MNZ029>031-032-039>041-046>048-054>057-064-240500-
   West Central Minnesota

CITY           SKY/WX    TMP DP  RH WIND       PRES   REMARKS
FERGUS FALLS   CLOUDY    23  18  80 N15       30.06R WCI  10
WHEATON        CLOUDY    25  19  80 N13       30.05R WCI  13
MORRIS         CLOUDY    27  21  80 N17       29.98R WCI  14
ALEXANDRIA     CLOUDY    25  19  78 N13       29.97R WCI  14
ELBOW LAKE     FAIR      24  19  82 NE13G18   30.00S WCI  12
WADENA         CLOUDY    21  16  79 N14       29.99R WCI   8
GLENWOOD       CLOUDY    27  21  80 NE16      29.96R WCI  14
APPLETON       CLOUDY    28  23  80 N17       29.98R WCI  16
BENSON         CLOUDY    30  19  64 NE14G20   29.99R WCI  20
ORTONVILLE     CLOUDY    27  19  74 N18G25    30.00R WCI  13
MADISON        CLOUDY    30  25  80 N18       29.98R WCI  18
WILLMAR        FAIR      28  21  74 NE17G23   29.95R WCI  16
$$
MNZ033>034-036-042>043-049>051-058-059-240500-
   Central Minnesota

CITY           SKY/WX    TMP DP  RH WIND       PRES   REMARKS
ST CLOUD       CLOUDY    27  20  75 NE14G21   29.96R WCI  16
SAUK CENTRE    FAIR      26  18  72 N15G21    29.96R WCI  14
PAYNESVILLE    CLOUDY    28  21  76 NE13G21   29.96R WCI  17
AITKIN         CLOUDY    25  16  68 N9        29.97R WCI  15
PINE RIVER     CLOUDY    21  16  79 N10       30.03R WCI  10
BRAINERD       CLOUDY    23  15  71 N14       29.98R WCI  11
STAPLES        CLOUDY    21  18  86 N10G18    29.98S WCI  10
LONG PRAIRIE   FAIR      27  19  74 N15G23    29.97R WCI  15
LITTLE FALLS   CLOUDY    27  18  69 N6        29.98R WCI  20
LITCHFIELD     CLOUDY    28  23  80 NE18G25   29.93S WCI  16
BUFFALO        CLOUDY    28  22  79 N13G18    29.96R WCI  17
MAPLE LAKE     CLOUDY    29  24  81 NE9       29.95R WCI  20
HUTCHINSON     CLOUDY    29  24  81 N12G23    29.93R WCI  20
$$
MNZ037-044-045-052-053-240500-
   East Central Minnesota

CITY           SKY/WX    TMP DP  RH WIND       PRES   REMARKS
PRINCETON      CLOUDY    28  21  74 N10G20    29.96R WCI  19
MORA           CLOUDY    27  21  80 N6        29.98R WCI  20
CAMBRIDGE      CLOUDY    28  19  69 N6        29.94S WCI  22
RUSH CITY      CLOUDY    27  21  80 NE8       29.95F WCI  18
MOOSE LAKE     CLOUDY    25  19  80 N7        29.95R WCI  17
HINCKLEY       FAIR      28  21  74 NE9       29.95R WCI  20
CLOQUET        CLEAR     21  16  79 N5        29.96R WCI  15
MCGREGOR       CLOUDY    23  18  80 N10       29.99R WCI  12
$$
MNZ071>073-080-081-089-090-097-098-240500-
   Southwest Minnesota

CITY           SKY/WX    TMP DP  RH WIND       PRES   REMARKS
MONTEVIDEO     CLOUDY    28  25  86 NE10      29.99R WCI  19
GRANITE FALLS  CLOUDY    32  25  76 N9        29.96R WCI  24
CANBY          CLOUDY    30  26  85 N13G20    29.96S WCI  20
MARSHALL       CLOUDY    29  25  85 NE20      29.90F WCI  16
REDWOOD FALLS  CLOUDY    31  23  72 NE8       29.94R WCI  23
OLIVIA         CLOUDY    30  25  80 NE15G24   29.94R WCI  19
PIPESTONE      LGT SNOW  28  23  80 NE22G29   29.82F VSB 3/4 WCI  15
WINDOM         LGT SNOW  27  27 100 N17G28    29.83F VSB 3/4 WCI  14
WORTHINGTON    SNOW      27  25  92 NE25G33   29.80S VSB 1/2 WCI  12
JACKSON        LGT SNOW  28  27  93 NE23G29   29.79F WCI  14
TRACY          CLOUDY    31  26  83 NE20G26   29.88F WCI  18
SLAYTON        CLOUDY    27  26  96 N16G23    29.83F WCI  14
$$
MNZ065>067-074>077-082>085-091>093-240500-
   South Central Minnesota

CITY           SKY/WX    TMP DP  RH WIND       PRES   REMARKS
MANKATO        LGT SNOW  28  27  93 NE18      29.86F VSB 3/4 WCI  16
NEW ULM        LGT SNOW  28  23  80 NE14G20   29.90R WCI  17
ST JAMES       CLOUDY    28  27  93 N15       29.87S WCI  17
FAIRMONT       LGT SNOW  28  27  93 N18       29.82R VSB 3/4 WCI  16
GLENCOE        CLOUDY    30  27  87 N12G17    29.91F WCI  21
FARIBAULT      LGT SNOW  30  27  86 N12G20    29.87S WCI  21
OWATONNA       SNOW      32  30  93 N12G25    29.84R WCI  23
WASECA         SNOW      30  28  93 N14       29.86S VSB 1/2 WCI  20
ALBERT LEA     CLOUDY    32  32 100 NE20G25   29.76F VSB 1/2 WCI  20
$$
MNZ078>079-086>088-094>096-240500-
   Southeast Minnesota

CITY           SKY/WX    TMP DP  RH WIND       PRES   REMARKS
ROCHESTER      SNOW      31  31 100 N21G30    29.80S VSB 1/2 WCI  18
RED WING       CLOUDY    36  25  64 N6        29.88R
STANTON        CLOUDY    32  27  80 N14       29.88S WCI  22
DODGE CENTER   LGT SNOW  30  30 100 N16       29.81F VSB 1   WCI  19
WINONA         RAIN      37  28  70 NE7       29.84S
AUSTIN         LGT SNOW  32  30  93 N14G21    29.78R WCI  22
PRESTON        TSTM      32  30  94 NE18G28   29.74F WCI  20
$$
ABBREVIATIONS USED IN REMARKS
   TC - TEMPERATURES IN CELSIUS
  WCI - WIND CHILL INDEX
   HX - HEAT INDEX
  VSB - VISIBILITY
$$




USA.gov is the U.S. government's official web portal to all federal, state and local government web resources and services.